Location: Central Falls
(41.8900°N, 71.3929°W)
Time: 16:42:30
(UTC+00:00)

Vanguard 1 - Pass Details

Date: 10 December 2023
Orbit: 653 x 3826 km, 34.3° (Epoch: 24 February)

Event Time Altitude Azimuth Distance (km) Brightness Sun altitude
Rises 00:53:10 0° 271° (W) 6,121 15.0 -39.9°
Reaches altitude 10° 00:56:37 10° 268° (W) 5,448 14.5 -40.5°
Maximum altitude 01:14:32 65° 192° (SSW) 3,852 12.8 -43.8°
Enters shadow 01:19:03 58° 153° (SSE) 4,129 12.8 -44.6°
Drops below altitude 10° 01:37:38 10° 118° (ESE) 6,756 - -48.0°
Sets 01:42:32 0° 116° (ESE) 7,585 - -48.9°
